Temp
-8 -8 -9 -9 -10 -10 -11 -11 -10 -11 -11 -12 -12 -12 -12 -13 -13 -14 -13 -14 -14 -14 -14 -13 -13 -13 -13 -13 -13 -13 -13 -13 -12 -12 -11 -11 -10 -9 -8 -8 -9 -10 -9 -9 -9 -8 -7 -6 -7 -7 -6 -5 -5 -5
-9 -10 -10 -11 -12 -12 -12 -12 -12 -13 -13 -13 -13 -13 -13 -14 -14 -15 -14 -14 -14 -14 -14 -14 -14 -14 -14 -14 -13 -13 -13 -13 -13 -13 -13 -12 -10 -10 -10 -8 -9 -10 -9 -9 -9 -8 -8 -7 -7 -8 -8 -7 -5 -6
-10 -11 -12 -12 -13 -14 -14 -14 -14 -14 -14 -14 -14 -14 -14 -15 -15 -15 -14 -14 -14 -14 -14 -14 -14 -14 -14 -14 -13 -13 -13 -14 -14 -14 -14 -14 -13 -11 -10 -9 -9 -9 -10 -9 -10 -9 -9 -7 -7 -8 -7 -7 -5 -6
-12 -13 -14 -14 -15 -16 -16 -16 -15 -15 -15 -15 -15 -15 -15 -15 -15 -15 -15 -14 -14 -14 -15 -14 -14 -14 -14 -15 -15 -14 -15 -15 -15 -15 -14 -14 -14 -14 -12 -11 -9 -10 -10 -10 -9 -9 -9 -8 -7 -7 -8 -7 -6 -7
-14 -14 -15 -15 -16 -16 -17 -17 -16 -16 -16 -15 -15 -16 -16 -16 -15 -15 -15 -15 -15 -15 -15 -15 -15 -15 -16 -16 -16 -16 -16 -16 -15 -15 -15 -14 -14 -14 -14 -12 -10 -11 -11 -10 -9 -10 -10 -9 -8 -8 -8 -7 -6 -7
-14 -15 -16 -17 -17 -17 -18 -18 -17 -17 -16 -16 -16 -16 -16 -15 -15 -15 -16 -15 -15 -15 -16 -16 -15 -15 -16 -16 -16 -16 -16 -16 -16 -17 -17 -16 -15 -15 -14 -12 -11 -12 -11 -10 -9 -8 -8 -7 -8 -9 -8 -7 -5 -7
-16 -16 -17 -17 -18 -18 -18 -18 -17 -17 -17 -16 -16 -16 -16 -15 -15 -16 -16 -16 -15 -15 -16 -17 -17 -16 -16 -16 -16 -17 -17 -17 -18 -18 -18 -18 -18 -17 -15 -12 -13 -14 -11 -10 -9 -8 -8 -9 -8 -9 -9 -8 -8 -7
-16 -17 -18 -18 -18 -18 -19 -19 -17 -17 -17 -16 -16 -16 -16 -16 -16 -16 -16 -16 -16 -16 -16 -16 -17 -16 -16 -17 -18 -18 -19 -19 -19 -19 -19 -19 -19 -18 -15 -13 -14 -13 -11 -11 -10 -9 -8 -9 -8 -9 -9 -9 -7 -7
-17 -18 -18 -18 -18 -18 -18 -17 -17 -17 -17 -17 -16 -16 -16 -16 -16 -16 -16 -16 -16 -16 -17 -17 -16 -17 -17 -18 -18 -18 -19 -20 -19 -20 -20 -19 -19 -18 -13 -15 -14 -13 -12 -11 -10 -10 -9 -9 -8 -8 -9 -8 -9 -6
-18 -18 -18 -18 -18 -17 -17 -17 -17 -17 -17 -17 -16 -16 -16 -16 -16 -16 -16 -16 -17 -17 -17 -17 -17 -17 -17 -18 -18 -19 -19 -20 -20 -21 -20 -20 -18 -17 -15 -15 -14 -13 -12 -11 -11 -10 -9 -9 -8 -8 -8 -9 -9 -7
-17 -17 -17 -17 -17 -16 -17 -17 -16 -16 -16 -16 -16 -16 -16 -16 -16 -16 -16 -16 -16 -17 -17 -17 -17 -17 -17 -18 -18 -19 -19 -19 -19 -19 -20 -19 -17 -16 -15 -14 -13 -12 -12 -12 -11 -10 -9 -8 -8 -8 -8 -9 -8 -8
-17 -17 -16 -16 -16 -16 -16 -16 -16 -16 -16 -16 -16 -16 -16 -16 -16 -16 -16 -16 -17 -17 -17 -17 -17 -17 -17 -17 -18 -18 -18 -18 -17 -18 -17 -18 -17 -15 -14 -14 -12 -12 -12 -11 -10 -9 -9 -8 -8 -8 -8 -8 -8 -8
-17 -17 -16 -16 -16 -16 -16 -16 -16 -16 -16 -16 -16 -16 -16 -16 -16 -16 -16 -16 -16 -17 -16 -17 -17 -17 -16 -16 -17 -17 -18 -17 -15 -16 -16 -15 -16 -15 -13 -13 -12 -12 -12 -11 -11 -10 -9 -9 -8 -8 -8 -8 -8 -8
-17 -16 -16 -16 -16 -16 -16 -16 -16 -16 -16 -16 -15 -16 -15 -16 -16 -16 -16 -16 -17 -17 -16 -16 -16 -17 -16 -16 -16 -16 -16 -16 -15 -15 -15 -15 -15 -14 -13 -13 -12 -12 -12 -11 -11 -11 -9 -8 -8 -8 -8 -8 -8 -8
-16 -16 -16 -16 -16 -16 -16 -16 -16 -16 -15 -16 -16 -16 -16 -16 -16 -16 -16 -16 -16 -16 -16 -16 -16 -16 -16 -16 -16 -16 -15 -16 -16 -15 -15 -15 -14 -13 -13 -13 -12 -12 -11 -11 -11 -10 -9 -9 -8 -8 -8 -8 -8 -8
-16 -16 -16 -16 -15 -16 -16 -16 -16 -15 -16 -16 -16 -15 -15 -16 -16 -16 -16 -15 -16 -16 -16 -16 -16 -15 -15 -15 -15 -15 -16 -15 -15 -15 -15 -15 -14 -14 -13 -12 -12 -12 -11 -11 -12 -10 -10 -9 -9 -8 -8 -8 -8 -7
-16 -15 -16 -15 -15 -15 -15 -15 -15 -15 -15 -15 -15 -15 -15 -15 -15 -16 -15 -15 -15 -16 -16 -16 -15 -15 -15 -15 -15 -15 -15 -15 -15 -15 -14 -15 -14 -13 -13 -13 -13 -13 -12 -11 -11 -11 -10 -10 -9 -9 -8 -8 -8 -7
-15 -15 -15 -16 -15 -15 -15 -15 -15 -15 -15 -15 -15 -15 -15 -15 -15 -15 -15 -15 -15 -15 -15 -16 -15 -15 -15 -15 -14 -14 -14 -14 -14 -14 -14 -14 -14 -13 -12 -12 -12 -11 -11 -11 -11 -10 -10 -10 -10 -9 -8 -8 -8 -7
-15 -15 -15 -16 -16 -16 -15 -15 -15 -15 -15 -15 -15 -15 -15 -15 -15 -15 -14 -15 -14 -15 -15 -15 -15 -14 -14 -15 -14 -14 -14 -14 -14 -13 -13 -13 -14 -12 -12 -11 -11 -11 -10 -10 -10 -10 -9 -9 -9 -8 -8 -8 -7 -7
-15 -15 -15 -16 -15 -15 -15 -15 -15 -15 -15 -15 -15 -15 -15 -15 -14 -14 -14 -15 -14 -14 -15 -15 -14 -15 -14 -14 -14 -14 -14 -14 -14 -14 -13 -12 -13 -13 -12 -12 -12 -11 -11 -10 -9 -9 -9 -9 -9 -8 -8 -8 -7 -7
-15 -15 -15 -16 -15 -15 -15 -15 -14 -14 -15 -15 -15 -15 -15 -15 -14 -14 -14 -14 -14 -14 -14 -14 -14 -14 -14 -14 -14 -14 -14 -14 -13 -14 -14 -12 -12 -13 -13 -12 -12 -12 -11 -11 -10 -10 -10 -9 -8 -8 -8 -8 -7 -7
-15 -15 -15 -15 -15 -15 -14 -14 -14 -15 -15 -15 -15 -15 -15 -15 -14 -14 -15 -15 -15 -14 -14 -14 -14 -14 -14 -14 -14 -13 -14 -13 -13 -13 -13 -13 -13 -12 -12 -13 -13 -12 -11 -11 -10 -11 -10 -10 -9 -9 -8 -8 -8 -8
-16 -15 -15 -15 -15 -15 -14 -14 -14 -14 -14 -15 -15 -15 -14 -14 -14 -14 -15 -15 -15 -15 -15 -15 -14 -14 -13 -13 -13 -13 -13 -13 -13 -13 -13 -13 -13 -13 -12 -12 -12 -11 -12 -11 -11 -11 -10 -9 -9 -9 -9 -9 -9 -8
-15 -15 -15 -15 -14 -14 -14 -14 -14 -14 -14 -14 -14 -14 -14 -14 -15 -15 -15 -14 -14 -14 -14 -15 -15 -14 -14 -14 -14 -13 -13 -13 -13 -13 -12 -12 -12 -12 -12 -12 -12 -12 -11 -11 -12 -11 -10 -10 -10 -10 -10 -9 -9 -9
-15 -15 -15 -15 -14 -14 -14 -14 -14 -14 -15 -14 -14 -14 -14 -14 -14 -14 -14 -15 -15 -14 -13 -13 -13 -14 -14 -14 -13 -13 -13 -13 -13 -12 -12 -12 -12 -12 -11 -12 -12 -12 -12 -11 -11 -11 -10 -10 -10 -9 -9 -9 -9 -9
-15 -15 -14 -14 -14 -14 -14 -15 -15 -14 -14 -14 -14 -14 -14 -14 -14 -14 -14 -15 -14 -14 -15 -14 -13 -13 -14 -14 -13 -13 -13 -13 -13 -13 -12 -13 -12 -12 -12 -12 -12 -12 -12 -12 -12 -11 -11 -11 -11 -11 -11 -11 -10 -10
-14 -14 -14 -14 -14 -14 -14 -14 -14 -14 -14 -14 -14 -14 -14 -14 -14 -14 -14 -14 -15 -15 -14 -14 -14 -14 -14 -13 -14 -13 -13 -13 -12 -13 -12 -12 -12 -12 -12 -12 -12 -12 -12 -11 -12 -12 -11 -11 -11 -11 -11 -11 -10 -10
-14 -14 -14 -14 -14 -14 -15 -14 -14 -14 -14 -14 -14 -14 -14 -14 -14 -14 -14 -15 -14 -15 -15 -15 -14 -14 -14 -14 -14 -13 -12 -12 -12 -13 -13 -13 -13 -12 -11 -11 -12 -11 -11 -11 -11 -11 -11 -11 -11 -11 -11 -11 -11 -10
-14 -14 -14 -14 -14 -14 -14 -14 -14 -15 -14 -14 -14 -14 -15 -14 -14 -14 -14 -14 -13 -14 -14 -14 -14 -14 -14 -13 -13 -12 -12 -12 -12 -12 -12 -12 -12 -12 -11 -11 -11 -11 -11 -11 -11 -11 -10 -10 -11 -11 -10 -10 -10 -10
-14 -14 -14 -14 -14 -14 -14 -14 -14 -14 -14 -14 -14 -14 -15 -15 -14 -14 -14 -14 -13 -13 -13 -14 -14 -14 -14 -13 -13 -13 -12 -12 -12 -12 -12 -12 -11 -11 -11 -11 -11 -11 -10 -10 -10 -10 -10 -10 -10 -10 -11 -11 -11 -11
-15 -14 -14 -14 -14 -14 -14 -14 -14 -14 -14 -14 -14 -14 -14 -14 -15 -15 -14 -14 -14 -13 -14 -14 -14 -13 -13 -13 -13 -13 -13 -12 -12 -12 -12 -12 -12 -12 -12 -12 -12 -12 -12 -11 -11 -11 -11 -11 -11 -12 -12 -12 -12 -12
-14 -14 -14 -14 -14 -14 -14 -14 -14 -14 -14 -14 -14 -14 -13 -14 -13 -13 -13 -13 -13 -13 -13 -13 -13 -13 -13 -13 -13 -13 -13 -12 -12 -12 -12 -13 -13 -13 -13 -13 -13 -13 -13 -13 -12 -12 -12 -12 -12 -12 -12 -12 -12 -12
-15 -15 -15 -14 -14 -14 -14 -14 -15 -15 -15 -14 -14 -14 -13 -13 -13 -13 -13 -13 -14 -13 -13 -13 -13 -13 -13 -13 -13 -13 -12 -12 -12 -12 -12 -12 -12 -13 -13 -13 -13 -13 -13 -13 -13 -13 -13 -13 -13 -13 -12 -13 -13 -13
Height
5773 5767 5761 5755 5749 5744 5739 5735 5730 5726 5722 5718 5715 5711 5709 5707 5704 5702 5702 5703 5704 5706 5703 5703 5705 5706 5707 5708 5710 5715 5719 5720 5723 5727 5732 5740 5745 5755 5764 5775 5786 5798 5803 5807 5816 5822 5831 5843 5851 5853 5860 5863 5871 5875
5757 5750 5743 5737 5731 5726 5722 5717 5714 5710 5706 5704 5701 5699 5697 5694 5693 5691 5690 5691 5692 5693 5693 5690 5689 5691 5693 5694 5697 5700 5702 5705 5707 5709 5714 5720 5728 5735 5747 5760 5771 5779 5792 5799 5806 5814 5825 5835 5842 5849 5855 5857 5863 5867
5738 5730 5724 5717 5712 5708 5705 5701 5698 5695 5693 5690 5688 5687 5685 5684 5683 5683 5680 5680 5680 5680 5678 5676 5677 5678 5678 5678 5679 5683 5684 5686 5690 5691 5694 5700 5709 5718 5728 5742 5759 5764 5775 5782 5795 5804 5817 5824 5830 5840 5844 5845 5856 5864
5722 5715 5707 5701 5696 5692 5689 5687 5684 5682 5680 5677 5677 5676 5676 5675 5674 5674 5671 5670 5668 5667 5665 5666 5665 5664 5664 5664 5664 5665 5666 5665 5671 5674 5677 5682 5693 5699 5708 5724 5739 5752 5762 5771 5782 5798 5810 5820 5827 5832 5834 5836 5850 5855
5708 5700 5693 5688 5683 5679 5675 5674 5672 5670 5668 5667 5666 5667 5666 5667 5666 5664 5662 5660 5658 5658 5656 5654 5652 5651 5652 5650 5649 5647 5648 5649 5652 5654 5660 5666 5674 5682 5687 5702 5720 5736 5747 5756 5769 5782 5798 5812 5819 5820 5825 5832 5836 5842
5695 5686 5680 5674 5670 5666 5665 5663 5664 5662 5660 5658 5658 5658 5658 5659 5658 5656 5654 5651 5648 5647 5647 5644 5639 5640 5640 5639 5636 5634 5633 5633 5633 5632 5636 5645 5655 5659 5665 5681 5710 5721 5735 5746 5757 5771 5786 5804 5815 5816 5817 5828 5831 5840
5682 5674 5667 5662 5658 5657 5655 5655 5655 5654 5653 5653 5651 5651 5652 5651 5650 5648 5647 5644 5640 5637 5637 5636 5634 5633 5630 5627 5623 5621 5618 5618 5615 5613 5616 5626 5635 5636 5647 5666 5702 5708 5722 5738 5748 5762 5775 5788 5801 5809 5812 5814 5828 5832
5673 5666 5660 5655 5651 5650 5649 5648 5648 5647 5647 5647 5647 5646 5646 5644 5642 5640 5638 5635 5632 5630 5628 5628 5626 5624 5620 5616 5612 5609 5606 5603 5600 5601 5604 5612 5616 5622 5626 5666 5683 5697 5712 5725 5735 5749 5769 5783 5794 5800 5806 5809 5821 5826
5665 5660 5655 5651 5647 5646 5645 5643 5642 5642 5642 5642 5641 5641 5640 5638 5635 5633 5630 5628 5627 5626 5623 5621 5619 5616 5612 5608 5604 5602 5600 5596 5593 5589 5591 5593 5599 5601 5632 5656 5672 5689 5703 5718 5727 5741 5757 5771 5783 5792 5799 5805 5810 5823
5659 5654 5650 5647 5644 5642 5640 5639 5638 5637 5637 5637 5637 5637 5635 5632 5629 5627 5623 5622 5621 5619 5618 5617 5614 5610 5606 5601 5598 5595 5590 5586 5583 5582 5580 5577 5588 5605 5622 5645 5663 5679 5696 5712 5723 5735 5750 5764 5778 5788 5796 5805 5809 5817
5655 5650 5646 5643 5641 5639 5637 5635 5634 5634 5634 5634 5634 5632 5629 5626 5624 5621 5619 5618 5616 5616 5615 5613 5609 5605 5601 5596 5594 5587 5586 5583 5575 5573 5573 5569 5579 5595 5619 5639 5658 5674 5692 5709 5719 5731 5742 5758 5768 5780 5790 5799 5807 5812
5651 5647 5644 5641 5638 5636 5634 5633 5633 5632 5631 5632 5630 5628 5624 5621 5619 5617 5616 5615 5613 5612 5611 5610 5608 5604 5601 5597 5590 5590 5587 5583 5583 5582 5576 5577 5583 5599 5619 5640 5657 5675 5691 5705 5715 5725 5738 5751 5762 5775 5787 5795 5802 5808
5647 5643 5641 5638 5636 5634 5632 5632 5631 5630 5629 5629 5627 5624 5621 5619 5617 5615 5613 5612 5610 5610 5610 5608 5606 5604 5604 5601 5594 5594 5590 5588 5582 5588 5592 5600 5603 5618 5633 5646 5660 5675 5689 5703 5713 5722 5733 5745 5755 5765 5777 5789 5795 5801
5643 5640 5638 5635 5633 5631 5631 5631 5629 5628 5627 5626 5624 5621 5618 5616 5615 5613 5612 5611 5609 5609 5608 5605 5605 5603 5602 5604 5602 5599 5598 5594 5596 5598 5602 5605 5618 5630 5639 5651 5663 5676 5690 5702 5711 5720 5730 5741 5750 5759 5769 5780 5791 5798
5640 5637 5635 5632 5631 5630 5629 5629 5627 5626 5625 5623 5621 5619 5616 5615 5613 5612 5610 5609 5606 5606 5607 5605 5603 5605 5604 5605 5605 5605 5605 5604 5604 5605 5609 5613 5623 5633 5643 5654 5664 5676 5690 5697 5709 5716 5727 5738 5747 5754 5762 5772 5782 5791
5637 5634 5632 5631 5629 5629 5628 5627 5627 5626 5624 5621 5618 5617 5615 5614 5612 5611 5609 5607 5606 5607 5605 5607 5607 5606 5606 5607 5606 5606 5609 5610 5611 5612 5616 5621 5628 5635 5644 5653 5664 5676 5686 5695 5705 5714 5725 5734 5743 5750 5757 5766 5774 5783
5634 5632 5630 5629 5629 5628 5628 5627 5625 5623 5621 5619 5617 5615 5612 5611 5610 5609 5608 5607 5605 5605 5605 5605 5607 5608 5609 5608 5609 5608 5608 5609 5613 5616 5620 5623 5628 5634 5644 5656 5665 5673 5680 5690 5700 5709 5720 5729 5738 5747 5754 5761 5769 5776
5631 5630 5629 5629 5629 5628 5628 5627 5625 5623 5620 5617 5615 5613 5610 5608 5607 5606 5606 5606 5605 5604 5603 5605 5607 5607 5608 5606 5606 5606 5607 5608 5607 5611 5618 5622 5628 5636 5644 5654 5663 5670 5679 5688 5696 5707 5715 5721 5729 5738 5747 5753 5759 5766
5628 5628 5628 5629 5629 5629 5629 5627 5625 5621 5619 5616 5614 5612 5610 5608 5607 5605 5605 5606 5606 5605 5604 5604 5606 5607 5608 5608 5608 5608 5608 5608 5608 5607 5612 5618 5625 5632 5641 5651 5659 5668 5675 5682 5690 5698 5707 5715 5723 5731 5739 5746 5753 5760
5627 5627 5627 5629 5629 5629 5629 5628 5625 5622 5620 5618 5615 5613 5610 5608 5606 5605 5605 5605 5606 5605 5605 5604 5604 5606 5607 5608 5608 5609 5610 5610 5609 5612 5611 5617 5623 5630 5638 5647 5655 5664 5668 5675 5683 5692 5700 5708 5715 5724 5731 5738 5745 5751
5626 5627 5628 5629 5630 5630 5630 5628 5626 5625 5623 5620 5617 5614 5612 5609 5607 5606 5606 5606 5606 5606 5606 5605 5604 5604 5604 5604 5606 5608 5609 5611 5612 5616 5618 5623 5625 5633 5641 5646 5652 5658 5665 5672 5680 5687 5695 5703 5712 5718 5724 5730 5735 5741
5626 5627 5629 5631 5632 5631 5631 5630 5629 5627 5626 5623 5620 5617 5613 5610 5608 5608 5607 5607 5607 5607 5606 5605 5604 5603 5604 5605 5607 5608 5609 5611 5614 5619 5622 5626 5630 5633 5633 5638 5646 5654 5663 5667 5663 5681 5693 5699 5707 5713 5720 5725 5730 5734
5627 5629 5631 5633 5634 5633 5634 5632 5631 5629 5627 5625 5622 5620 5617 5613 5611 5610 5609 5608 5607 5606 5604 5603 5603 5602 5603 5605 5608 5609 5611 5614 5617 5622 5626 5629 5633 5637 5642 5647 5653 5658 5662 5672 5678 5684 5691 5696 5702 5708 5714 5718 5723 5729
5631 5633 5634 5635 5635 5635 5635 5634 5633 5631 5630 5627 5625 5622 5619 5616 5613 5611 5609 5606 5604 5602 5601 5600 5600 5600 5602 5604 5607 5612 5616 5618 5619 5624 5627 5631 5636 5641 5646 5652 5658 5664 5668 5673 5677 5681 5686 5691 5697 5703 5708 5712 5717 5721
5635 5638 5639 5638 5638 5638 5638 5637 5636 5634 5632 5629 5626 5624 5622 5619 5617 5614 5611 5607 5603 5599 5597 5596 5596 5597 5601 5603 5608 5612 5617 5620 5623 5626 5630 5634 5638 5642 5647 5655 5659 5665 5668 5671 5675 5679 5684 5689 5693 5699 5703 5706 5710 5714
5639 5641 5641 5641 5642 5642 5641 5640 5638 5635 5632 5629 5627 5625 5624 5622 5619 5614 5612 5607 5602 5596 5592 5591 5592 5594 5600 5603 5608 5614 5619 5622 5624 5629 5633 5638 5641 5645 5651 5656 5660 5664 5668 5672 5674 5677 5681 5686 5690 5693 5696 5700 5702 5706
5643 5644 5644 5645 5645 5645 5645 5644 5642 5638 5634 5632 5631 5629 5626 5624 5621 5618 5615 5609 5603 5597 5594 5592 5592 5595 5601 5606 5611 5615 5618 5623 5628 5632 5634 5637 5641 5646 5649 5652 5656 5661 5666 5670 5673 5676 5678 5681 5684 5686 5688 5692 5695 5698
5648 5648 5648 5649 5649 5649 5649 5648 5646 5642 5640 5638 5636 5632 5628 5624 5624 5622 5619 5613 5607 5602 5599 5597 5598 5602 5606 5610 5615 5619 5624 5629 5632 5635 5636 5638 5641 5644 5648 5653 5657 5660 5664 5667 5669 5671 5673 5675 5677 5679 5681 5682 5683 5686
5651 5652 5653 5653 5654 5654 5653 5652 5650 5648 5646 5644 5641 5636 5631 5629 5627 5626 5624 5619 5616 5611 5609 5608 5610 5613 5615 5617 5620 5624 5628 5631 5634 5636 5638 5640 5644 5647 5649 5652 5656 5658 5660 5663 5666 5667 5668 5669 5671 5671 5672 5673 5674 5673
5656 5656 5657 5657 5658 5658 5657 5657 5656 5654 5653 5650 5647 5645 5642 5638 5634 5633 5631 5627 5624 5622 5619 5619 5620 5621 5622 5623 5626 5629 5632 5634 5636 5638 5640 5642 5645 5647 5649 5651 5653 5656 5658 5660 5661 5662 5663 5665 5665 5666 5666 5666 5667 5667
5660 5661 5661 5661 5661 5662 5661 5661 5661 5660 5659 5656 5654 5652 5650 5648 5644 5640 5637 5633 5629 5629 5631 5630 5630 5630 5631 5632 5633 5635 5636 5637 5639 5640 5641 5643 5645 5647 5649 5651 5652 5653 5654 5655 5657 5657 5658 5659 5660 5660 5661 5662 5663 5663
5664 5664 5664 5664 5665 5666 5666 5665 5665 5664 5663 5662 5661 5660 5657 5654 5653 5650 5647 5643 5641 5640 5639 5638 5638 5638 5638 5638 5639 5640 5641 5642 5642 5643 5644 5645 5646 5647 5648 5649 5650 5651 5652 5652 5652 5652 5653 5653 5654 5654 5655 5655 5656 5656
5667 5667 5667 5667 5667 5667 5669 5670 5669 5668 5667 5666 5665 5664 5662 5661 5659 5658 5656 5653 5652 5651 5650 5648 5647 5646 5645 5645 5645 5645 5645 5645 5644 5644 5645 5645 5645 5646 5646 5647 5648 5648 5648 5648 5648 5649 5650 5649 5649 5649 5649 5649 5650 5650
Wind_Speed
53 55 57 57 55 53 50 48 47 47 44 41 39 37 37 34 31 33 32 32 30 30 34 36 37 36 37 39 41 42 39 40 45 52 56 56 57 58 62 62 60 66 62 63 59 54 50 46 52 46 36 34 27 25
60 61 61 60 58 55 52 50 48 43 38 37 36 34 32 31 29 31 31 31 30 30 33 36 37 35 34 37 38 39 39 40 43 47 56 59 64 63 62 63 62 66 70 65 59 54 49 41 45 46 41 33 27 30
61 59 59 58 56 53 50 45 42 38 35 33 32 31 30 28 29 27 29 31 31 32 33 34 30 33 37 38 38 39 45 47 48 47 54 61 61 66 66 64 62 68 64 74 68 59 49 42 35 45 38 44 38 43
56 54 52 50 48 45 42 38 37 34 31 30 28 28 27 26 22 25 29 29 31 30 24 26 30 33 34 34 37 40 43 48 49 51 52 60 60 61 68 66 64 65 65 67 66 61 52 44 34 49 44 39 25 47
51 50 49 46 43 44 34 33 33 30 28 26 27 24 25 21 22 25 26 27 27 22 23 27 31 33 29 29 28 31 31 31 40 50 57 57 58 58 62 70 68 63 62 66 64 61 56 47 43 45 46 41 32 36
51 47 42 39 40 35 31 29 29 27 24 24 21 23 19 20 22 23 22 25 22 22 21 22 31 28 22 25 26 30 37 36 40 49 56 62 61 61 60 73 67 62 66 65 67 61 55 45 47 47 48 37 43 28
50 43 39 39 36 33 28 23 24 24 22 16 17 15 17 19 21 20 20 21 21 24 20 14 17 15 19 25 29 30 33 34 36 40 48 53 55 58 58 74 63 58 62 64 64 61 56 54 54 52 42 41 32 41
43 34 29 26 23 21 19 18 21 20 17 14 18 16 18 20 20 21 20 19 20 19 17 14 14 17 18 19 19 25 27 33 35 33 39 48 54 53 60 69 66 60 58 60 61 61 56 54 56 61 49 40 47 42
36 30 28 25 21 17 19 19 18 16 12 19 15 15 17 20 22 20 17 17 18 14 11 13 12 18 18 17 15 14 16 15 19 30 40 51 56 59 58 72 67 59 59 62 61 58 53 58 61 63 54 45 36 41
30 28 21 18 19 19 17 17 16 14 14 16 12 14 17 19 19 16 17 16 12 8 6 5 10 14 17 12 10 16 17 15 18 6 19 52 57 44 69 75 69 62 62 61 55 57 55 58 61 65 62 42 36 46
25 25 22 19 16 18 18 15 12 9 14 10 12 16 18 18 18 13 13 11 9 3 3 6 11 17 12 9 9 17 21 16 16 15 18 21 45 54 79 75 68 65 64 53 52 57 51 51 60 66 63 52 48 49
23 20 16 18 20 17 15 9 8 16 9 10 12 16 17 16 10 10 9 7 4 7 4 7 9 15 12 9 5 5 10 11 2 5 10 3 28 74 79 71 67 65 64 57 48 50 49 49 59 64 68 61 57 55
23 18 16 19 16 14 10 7 15 7 9 11 13 15 17 10 6 7 7 8 7 6 6 5 7 10 5 7 5 3 12 8 13 11 14 20 37 71 69 64 63 64 63 54 51 51 49 47 50 57 61 69 60 56
20 15 19 16 14 12 7 6 14 9 11 12 14 15 13 6 6 7 7 7 7 5 5 5 8 12 4 12 1 3 7 6 12 16 18 23 42 61 66 63 63 60 55 52 47 46 45 42 42 51 59 59 67 60
17 18 16 13 12 11 7 8 12 11 13 15 14 13 7 6 7 7 5 6 7 5 4 6 11 10 11 3 2 2 6 15 15 16 25 28 44 49 63 61 61 59 55 44 48 45 42 40 36 33 50 54 60 63
16 14 11 10 8 6 6 8 8 10 14 16 11 9 7 7 6 7 7 7 6 1 7 6 12 13 13 12 10 7 2 10 16 11 24 33 37 42 56 61 53 51 57 55 45 42 41 39 35 32 37 44 45 52
12 10 8 6 5 9 5 8 11 15 14 11 13 14 10 6 6 5 7 5 4 4 9 8 5 9 6 4 11 6 8 7 10 17 15 30 30 35 43 48 48 48 48 47 58 53 45 46 41 40 35 38 40 40
9 6 5 3 7 5 7 9 11 12 13 12 12 10 9 7 7 8 6 4 4 6 11 11 5 2 4 7 7 8 4 13 12 13 23 24 37 35 37 34 42 48 43 45 47 58 56 53 51 51 46 44 43 43
6 3 2 1 5 5 9 11 16 15 12 10 11 10 9 9 9 4 1 1 2 3 6 12 7 4 6 4 6 6 7 3 10 12 14 28 39 44 40 39 34 40 47 48 44 42 53 59 52 44 43 47 45 44
2 0 1 2 3 7 9 12 14 12 13 14 14 12 13 10 8 6 3 3 3 2 2 5 10 9 8 8 8 9 5 5 9 12 13 28 35 42 46 48 43 36 40 42 46 42 42 45 48 46 42 42 44 47
1 1 3 3 4 6 8 14 11 14 17 17 15 17 20 16 10 5 6 5 3 1 2 6 4 4 8 11 11 5 5 7 13 14 17 21 28 38 30 36 48 44 41 33 47 46 42 37 38 43 44 43 43 43
4 5 7 7 6 7 10 11 12 14 16 19 17 18 20 18 13 11 7 7 7 7 5 4 5 7 2 4 7 11 7 11 17 20 17 23 22 24 25 39 48 48 52 22 28 46 41 40 39 36 38 40 41 42
10 12 11 10 8 9 10 11 13 14 13 16 21 20 19 16 15 13 11 9 9 10 6 2 4 7 3 5 14 16 15 16 16 22 18 19 21 27 34 30 34 41 39 30 27 34 36 36 35 30 32 35 32 34
15 13 14 11 12 14 11 9 12 16 18 19 20 18 18 19 18 16 14 13 12 11 7 6 4 6 8 7 22 22 19 17 20 27 24 22 26 30 30 33 34 36 38 34 29 31 33 37 37 35 34 34 34 34
14 14 12 13 12 13 14 14 14 13 13 14 13 12 12 15 19 18 20 22 27 20 11 6 6 11 12 14 23 20 20 22 23 24 19 20 24 26 29 27 26 24 26 28 27 26 27 28 30 32 34 35 37 36
13 14 14 14 13 13 15 13 16 18 14 13 12 9 12 18 18 17 12 22 26 19 12 4 4 11 19 22 21 27 23 21 20 19 26 23 18 18 20 21 21 22 23 22 22 23 23 23 26 28 32 33 33 34
16 13 13 13 14 17 16 18 21 22 17 18 17 17 15 13 17 18 19 25 27 17 13 9 10 15 23 25 18 27 24 19 14 12 14 15 15 18 19 21 22 23 20 19 20 19 20 22 25 27 30 32 37 39
15 13 11 12 16 14 15 18 20 25 24 24 24 25 20 14 15 18 21 24 26 22 18 18 18 21 22 24 18 16 15 15 12 10 11 14 14 11 13 18 18 17 18 16 16 13 12 13 14 18 25 28 35 40
17 15 13 16 16 15 16 19 23 25 26 27 27 32 30 17 15 21 20 24 27 26 25 24 22 20 19 20 22 23 22 18 14 17 19 14 13 13 10 10 8 6 7 9 12 14 14 15 15 14 15 16 17 21
17 18 14 16 15 14 15 17 22 24 23 24 28 27 28 17 24 27 27 29 25 25 27 25 21 18 17 17 20 19 18 16 14 14 13 13 13 14 14 14 14 15 15 16 17 18 19 20 20 20 20 21 20 17
12 11 11 12 11 8 11 13 15 15 19 22 24 24 24 24 26 25 27 31 30 27 26 25 23 22 21 19 17 14 11 11 10 8 7 7 9 10 11 12 14 14 15 17 19 20 21 21 20 20 21 22 21 19
10 10 12 9 9 11 11 11 10 9 16 21 19 19 22 23 23 22 25 29 30 32 28 25 22 18 16 18 19 16 15 15 12 9 7 5 4 3 3 5 6 7 9 9 10 11 11 13 15 16 17 18 18 19
11 11 8 6 4 4 6 8 8 8 9 13 17 19 20 18 20 22 24 28 30 31 30 28 26 24 23 20 17 14 11 11 13 10 8 3 3 4 5 6 5 8 8 7 6 8 10 10 12 12 14 15 15 17
Wind_Direction
303 301 300 300 299 297 295 293 291 291 291 289 287 286 285 282 278 276 273 268 265 267 266 264 263 255 251 254 253 253 250 250 251 247 244 239 238 231 224 216 210 216 221 231 236 238 237 226 213 225 239 250 225 204
301 300 299 297 295 294 292 291 290 290 287 285 284 283 280 278 275 276 270 273 275 272 275 269 269 254 257 264 262 252 253 254 254 254 246 240 235 234 228 220 213 211 219 226 230 234 239 237 222 219 229 248 237 216
304 302 301 298 295 293 293 293 291 285 282 280 281 280 280 275 275 274 279 282 281 281 279 272 262 259 266 263 258 255 256 254 246 245 243 237 235 233 229 223 215 213 214 221 227 230 228 232 220 203 216 226 235 219
311 310 308 305 302 297 291 287 283 280 278 280 279 280 279 276 277 282 286 288 287 287 272 271 270 268 265 263 265 262 256 253 248 246 242 237 232 234 231 223 214 214 211 218 222 225 226 227 222 201 215 219 205 213
314 311 309 307 304 298 286 285 282 280 280 280 282 276 280 276 286 292 291 292 291 278 278 278 270 267 273 272 271 259 249 258 255 246 240 234 230 234 234 220 212 209 209 213 215 220 221 217 194 201 215 218 203 199
317 310 306 307 305 297 289 292 292 288 283 283 278 281 278 285 291 295 294 295 288 283 286 281 273 287 274 284 286 268 263 262 265 248 234 232 231 234 233 216 204 209 208 210 214 215 211 203 190 204 215 206 206 208
322 317 314 306 302 287 282 295 295 291 289 281 297 287 286 296 300 294 297 293 286 291 298 254 271 290 295 294 283 272 264 265 260 249 231 226 227 228 228 208 192 202 205 207 213 212 206 199 195 196 202 219 204 203
323 320 323 324 321 310 304 301 291 289 287 281 296 289 295 303 303 300 296 294 288 294 294 273 282 305 301 302 280 273 266 262 256 251 236 220 220 226 221 190 186 195 199 203 211 212 202 198 192 203 200 210 199 218
322 315 316 314 313 316 305 298 297 293 277 295 288 293 302 310 307 301 294 289 296 301 295 299 298 307 295 293 276 256 302 266 250 245 231 225 221 225 195 175 180 186 193 198 208 207 198 192 191 202 210 191 200 219
318 324 322 324 323 314 308 306 305 296 261 300 295 304 310 314 310 300 288 295 305 303 313 336 337 326 299 296 268 276 285 332 262 263 238 226 218 217 183 174 179 184 190 192 204 204 200 196 196 196 205 196 207 224
320 324 326 328 326 315 313 316 305 283 304 296 309 313 317 318 310 293 289 309 318 229 232 317 332 337 306 323 269 273 281 295 300 296 271 242 219 192 171 173 177 183 186 184 198 201 196 197 198 196 200 201 208 219
321 327 330 326 324 321 320 316 308 323 302 319 322 322 326 316 304 302 309 314 318 219 251 332 333 349 353 358 297 293 264 268 264 205 40 260 188 170 167 172 176 181 184 182 180 191 192 197 198 199 202 204 210 218
321 316 318 331 328 324 315 313 319 323 318 324 331 333 327 316 317 321 322 324 294 262 294 327 346 355 19 83 334 200 237 326 330 112 105 175 175 166 168 175 177 185 188 189 191 187 188 195 198 197 201 204 210 218
316 314 323 331 328 322 300 304 336 330 333 338 336 326 332 325 335 356 348 324 300 251 313 348 358 16 13 190 8 56 58 82 100 92 132 153 172 175 174 178 181 187 191 191 189 185 183 186 193 200 197 201 207 210
306 319 329 327 328 320 303 300 331 333 335 336 336 340 337 343 347 359 352 332 312 289 230 25 29 50 45 159 137 90 84 88 118 126 149 162 174 175 182 186 185 185 191 182 191 188 183 189 189 196 203 201 206 210
309 325 323 329 328 329 331 327 335 339 341 352 343 336 336 325 333 356 348 358 344 245 189 92 57 69 57 32 23 7 55 141 138 150 157 170 179 186 185 189 191 190 194 199 196 197 187 185 187 192 200 201 203 209
317 319 323 338 341 335 359 352 346 345 341 341 345 337 329 309 310 321 325 350 322 257 202 169 116 76 77 15 13 352 287 218 166 165 167 177 166 177 184 195 198 192 190 195 203 201 194 186 189 197 193 198 205 209
312 312 336 352 347 3 7 359 349 349 358 343 343 4 359 334 291 288 302 304 282 266 231 196 187 136 21 9 51 359 64 223 232 218 195 191 182 174 174 180 192 201 202 205 205 205 203 198 202 208 205 204 203 203
304 309 341 48 3 26 9 6 360 349 353 360 354 355 357 358 5 9 312 12 276 263 218 225 216 242 288 303 1 332 14 138 193 203 172 195 187 187 186 192 195 192 200 207 210 210 210 213 213 213 214 214 214 216
302 236 74 78 61 30 23 15 9 32 35 34 35 29 24 23 27 35 13 6 10 270 227 219 225 228 251 255 255 310 311 206 204 206 178 168 174 185 196 195 193 191 195 204 209 209 204 207 210 212 217 219 218 221
192 145 136 110 68 32 31 23 52 47 40 35 32 29 24 21 28 60 63 48 31 68 141 161 203 244 246 245 247 241 210 181 145 184 218 192 163 181 180 191 187 188 188 189 195 193 197 203 206 210 214 217 220 222
140 128 123 104 64 51 45 62 53 47 45 38 30 17 7 10 30 49 65 74 76 71 77 124 212 247 204 164 187 160 161 157 156 175 173 163 173 160 144 169 182 188 192 188 151 178 187 192 199 209 214 219 223 223
112 116 103 85 72 57 77 76 59 41 37 34 25 19 25 38 35 22 17 14 2 355 345 245 205 226 188 134 159 155 155 161 162 179 173 172 176 173 172 174 181 198 205 203 193 185 191 204 214 214 215 213 221 224
116 107 99 83 76 76 79 71 46 46 38 30 20 20 29 37 32 22 13 8 358 345 327 277 254 196 188 153 165 164 165 168 165 179 182 181 186 189 188 183 185 189 201 206 202 196 196 198 204 209 214 217 223 223
113 117 97 80 87 72 67 57 60 46 20 20 11 24 25 23 17 19 22 10 359 353 346 314 247 196 168 150 162 163 166 161 161 184 174 176 182 189 193 190 182 191 198 202 204 205 207 211 216 220 222 224 227 229
111 97 84 88 94 81 72 59 28 22 19 24 46 59 34 21 7 9 19 8 3 1 5 353 201 174 162 155 157 166 146 144 152 168 191 191 185 184 193 199 197 195 197 201 210 215 221 227 232 235 233 235 239 238
87 82 89 97 87 87 69 55 46 44 48 57 46 29 17 27 41 45 27 6 5 24 27 53 103 139 149 148 156 160 167 158 135 109 141 158 184 199 197 197 199 205 207 206 208 225 240 242 244 248 248 246 240 240
90 90 104 98 100 82 58 46 46 44 53 63 51 36 30 36 54 44 33 21 33 42 54 74 105 128 136 144 139 129 119 110 130 127 115 130 136 151 197 207 204 216 216 222 234 237 239 243 250 257 259 261 256 251
89 112 94 106 101 86 59 58 55 54 54 50 43 34 33 49 64 56 49 50 49 54 67 85 95 100 111 122 130 137 138 135 153 166 173 166 150 151 165 182 195 207 226 237 246 254 258 260 261 264 274 280 287 283
78 82 98 115 101 83 74 65 61 54 52 52 50 46 38 56 79 67 63 66 59 61 69 76 82 88 100 116 126 129 134 141 143 141 154 169 173 186 198 204 212 222 230 242 250 256 260 262 268 271 275 278 280 280
84 68 81 109 110 95 85 93 70 50 39 46 50 43 47 57 66 65 59 54 76 94 77 71 76 85 91 94 96 102 110 114 119 132 149 168 183 192 201 211 223 229 235 242 247 252 256 258 264 265 265 266 271 276
100 87 76 124 109 94 86 93 82 55 51 50 53 53 51 53 57 60 64 71 71 72 74 72 76 78 77 82 81 81 89 87 80 91 98 103 111 148 192 196 205 217 231 244 248 250 254 254 257 264 271 273 273 273
105 94 80 57 28 145 99 87 72 60 52 51 49 53 53 58 64 66 68 70 69 70 73 73 70 69 71 73 73 70 68 67 70 74 68 35 274 270 247 231 268 276 273 281 291 294 284 296 282 277 260 259 266 269